Location: Gwatt
(46.7204°N, 7.6223°E)
Time: 01:44:22
(UTC+00:00)

Courier 1B Rocket - Pass Details

Date: 27 January 2021
Orbit: 920 x 1202 km, 28.3° (Epoch: 05 March)

Event Time Altitude Azimuth Distance (km) Brightness Sun altitude
Rises 06:25:59 0° 231° (SW) 3,666 7.7 -6.1°
Reaches altitude 10° 06:29:45 10° 210° (SSW) 2,771 7.3 -5.5°
Maximum altitude 06:33:32 16° 175° (S) 2,432 7.5 -4.9°
Drops below altitude 10° 06:37:27 10° 141° (SE) 2,890 8.6 -4.3°
Sets 06:41:30 0° 121° (ESE) 3,909 10.7 -3.6°
